Location: Unspecified
(0.0000°N, 0.0000°E)
Time: 05:55:26
(UTC+00:00)

NIUSAT - Visible Passes

Search period start: 08 June 2023 00:00
Search period end: 18 June 2023 00:00
Orbit: 441 x 458 km, 97.2° (Epoch: 07 June)

Date Brightness Start Highest point End Pass type
(mag) Time Alt. Az. Time Alt. Az. Time Alt. Az.
08 Jun ? 19:25:40 44° NE 19:25:40 44° NE 19:28:24 10° N visible
09 Jun ? 18:50:06 13° ENE 18:50:06 13° ENE 18:51:31 10° NE visible
09 Jun ? 20:23:44 12° WNW 20:23:44 12° WNW 20:24:18 10° WNW visible
10 Jun ? 19:48:08 43° NW 19:48:08 43° NW 19:50:40 10° NNW visible
11 Jun ? 19:12:28 28° ENE 19:12:28 28° ENE 19:15:07 10° NNE visible
12 Jun ? 20:10:24 19° WNW 20:10:24 19° WNW 20:12:05 10° NW visible
13 Jun ? 19:34:38 59° N 19:34:38 59° N 19:37:27 10° N visible
14 Jun ? 18:58:50 17° ENE 18:58:50 17° ENE 19:01:03 10° NE visible
15 Jun ? 19:56:36 33° WNW 19:56:36 33° WNW 19:58:59 10° NNW visible
16 Jun ? 19:20:42 40° ENE 19:20:42 40° ENE 19:23:35 10° N visible
17 Jun ? 18:44:45 10° E 18:44:54 10° E 18:45:20 10° ENE visible
17 Jun ? 20:18:22 15° W 20:18:22 15° W 20:19:34 10° WNW visible
